Погода в Зиндере

Нигер     13°48′26″N   8°59′12″E
темп.,
°C
ветер,
м/с
пор.,
м/с
влажн.,
%
обл.,
%
осадки,
мм/ч
давл.,
гПа
погр.,
м
28 ноября, вс
вс2801:00+23св4815100 0.0 1013103
04:00+22св491698 0.0 1013130
07:00+21св4101899 0.0 1014160
10:00+29всв791233 0.0 1014691
13:00+33в77898 0.0 10111717
16:00+33в66772 0.0 10092003
19:00+27св4611100 0.0 101172
22:00+24всв461351 0.0 101375
29 ноября, пн
пн2901:00+23св4714100 0.0 101385
04:00+21св481699 0.0 1011122
07:00+20св491895 0.0 1013130
10:00+29всв6711100 0.0 1014636
13:00+32всв448100 0.0 10121837
16:00+33всв447100 0.0 10091935
19:00+26св4710100 0.0 101178
22:00+24св5912100 0.0 1013133
30 ноября, вт
вт3001:00+23св58136 0.0 1012116
04:00+21св46145 0.0 101289
07:00+21всв4101549 0.0 1013158
10:00+30всв8101046 0.0 1014699
13:00+34всв7785 0.0 10111583
16:00+34всв66946 0.0 10092168
19:00+28св5111323 0.0 1011170
22:00+25ссв511165 0.0 1013181
1 декабря, ср
ср101:00+24ссв613200 0.0 1013240
04:00+22ссв512245 0.0 1012215
07:00+21ссв513248 0.0 1013267
10:00+29всв811125 0.0 1014735
13:00+34всв89115 0.0 10101579
16:00+34всв78115 0.0 10081770
19:00+27св59144 0.0 1010120
22:00+25св511160 0.0 1012177
2 декабря, чт
чт201:00+23св412200 0.0 1012217
04:00+21всв413240 0.0 1012254
07:00+20всв414270 0.0 1013298
10:00+28всв911160 0.0 1014773
13:00+32в88100 0.0 10101427
16:00+33всв6690 0.0 10081869
19:00+26св58131 0.0 101098
22:00+23св58150 0.0 1012106